| time (UTC) | temp F | wind direction | speed MPH | gust MPH | rain 1hr in | rain 24hr in | rain mn in | humidity % | barometer mb |
| 20260831101516 | 72 | 152 | 0.0 | 1.0 | 0.00 | 0.11 | 0.00 | 87 | 1013.9 |
| 20260831100016 | 72 | 152 | 0.0 | 2.0 | 0.00 | 0.11 | 0.00 | 86 | 1013.6 |
| 20260831094514 | 72 | 173 | 0.0 | 0.0 | 0.00 | 0.11 | 0.00 | 87 | 1013.6 |
| 20260831093015 | 72 | 132 | 0.0 | 4.0 | 0.00 | 0.11 | 0.00 | 87 | 1013.7 |
| 20260831091511 | 72 | 154 | 0.0 | 2.0 | 0.00 | 0.11 | 0.00 | 87 | 1013.8 |
| 20260831090009 | 72 | 155 | 0.0 | 1.0 | 0.00 | 0.11 | 0.00 | 87 | 1013.8 |
| 20260831084508 | 73 | 153 | 0.0 | 3.0 | 0.00 | 0.11 | 0.00 | 86 | 1013.8 |
| 20260831083009 | 73 | 146 | 0.0 | 2.0 | 0.00 | 0.11 | 0.00 | 86 | 1013.9 |
| 20260831081506 | 73 | 175 | 0.0 | 3.0 | 0.00 | 0.11 | 0.00 | 86 | 1013.7 |
| 20260831080004 | 73 | 192 | 0.0 | 3.0 | 0.00 | 0.11 | 0.00 | 86 | 1013.8 |
| 20260831074503 | 73 | 156 | 0.0 | 0.0 | 0.00 | 0.11 | 0.00 | 86 | 1013.9 |
| 20260831073007 | 73 | 155 | 0.0 | 1.0 | 0.00 | 0.11 | 0.00 | 86 | 1014.0 |
| 20260831071502 | 73 | 155 | 0.0 | 2.0 | 0.00 | 0.11 | 0.00 | 86 | 1014.1 |
| 20260831070101 | 73 | 131 | 0.0 | 3.0 | 0.00 | 0.11 | 0.00 | 87 | 1013.9 |
| 20260831064559 | 74 | 148 | 0.0 | 3.0 | 0.00 | 0.11 | 0.00 | 87 | 1014.2 |
| 20260831063058 | 74 | 71 | 0.0 | 2.0 | 0.00 | 0.11 | 0.00 | 87 | 1014.1 |
| 20260831061601 | 74 | 161 | 0.0 | 3.0 | 0.00 | 0.11 | 0.00 | 88 | 1013.9 |
| 20260831060105 | 74 | 165 | 0.0 | 1.0 | 0.00 | 0.11 | 0.00 | 88 | 1014.0 |
| 20260831054555 | 74 | 167 | 0.0 | 5.0 | 0.00 | 0.11 | 0.00 | 88 | 1014.0 |
| 20260831053054 | 74 | 200 | 0.0 | 4.0 | 0.00 | 0.11 | 0.00 | 90 | 1014.0 |
| 20260831051604 | 74 | 118 | 1.0 | 5.0 | 0.00 | 0.11 | 0.00 | 90 | 1014.1 |
| 20260831050050 | 74 | 138 | 0.0 | 3.0 | 0.00 | 0.11 | 0.11 | 91 | 1014.2 |
| 20260831044550 | 74 | 176 | 0.0 | 3.0 | 0.00 | 0.11 | 0.11 | 92 | 1014.3 |
| 20260831043050 | 74 | 150 | 0.0 | 3.0 | 0.00 | 0.11 | 0.11 | 93 | 1014.4 |
| 20260831041548 | 74 | 148 | 0.0 | 2.0 | 0.00 | 0.11 | 0.11 | 94 | 1014.5 |
| 20260831040048 | 74 | 160 | 0.0 | 3.0 | 0.00 | 0.11 | 0.11 | 95 | 1014.6 |
| 20260831034547 | 74 | 161 | 0.0 | 5.0 | 0.00 | 0.11 | 0.11 | 96 | 1014.7 |
| 20260831033047 | 73 | 220 | 0.0 | 2.0 | 0.00 | 0.11 | 0.11 | 97 | 1014.8 |
| 20260831031547 | 73 | 347 | 0.0 | 4.0 | 0.00 | 0.11 | 0.11 | 97 | 1015.4 |
| 20260831024610 | 73 | 172 | 0.0 | 0.0 | 0.00 | 0.11 | 0.11 | 97 | 1015.0 |
| 20260831023045 | 73 | 143 | 0.0 | 0.0 | 0.00 | 0.11 | 0.11 | 97 | 1015.1 |
| 20260831021544 | 73 | 143 | 0.0 | 0.0 | 0.00 | 0.11 | 0.11 | 97 | 1015.1 |
| 20260831020043 | 74 | 143 | 0.0 | 0.0 | 0.00 | 0.11 | 0.11 | 96 | 1015.2 |
| 20260831014543 | 74 | 143 | 0.0 | 0.0 | 0.00 | 0.11 | 0.11 | 95 | 1015.3 |
| 20260831013054 | 74 | 143 | 0.0 | 0.0 | 0.00 | 0.11 | 0.11 | 95 | 1015.2 |
| 20260831011542 | 74 | 143 | 0.0 | 0.0 | 0.00 | 0.11 | 0.11 | 94 | 1014.9 |
| 20260831010042 | 74 | 143 | 0.0 | 0.0 | 0.00 | 0.11 | 0.11 | 94 | 1015.1 |
| 20260831004641 | 74 | 144 | 0.0 | 0.0 | 0.00 | 0.11 | 0.11 | 93 | 1014.8 |
| 20260831003040 | 74 | 144 | 0.0 | 4.0 | 0.00 | 0.11 | 0.11 | 94 | 1014.5 |
| 20260831001540 | 74 | 163 | 1.0 | 5.0 | 0.00 | 0.11 | 0.11 | 94 | 1014.4 |
| 20260831000039 | 74 | 128 | 1.0 | 3.0 | 0.00 | 0.11 | 0.11 | 95 | 1014.8 |
| 20260830234539 | 74 | 123 | 0.0 | 3.0 | 0.01 | 0.11 | 0.11 | 95 | 1015.1 |
| 20260830233038 | 74 | 123 | 0.0 | 0.0 | 0.01 | 0.11 | 0.11 | 95 | 1015.2 |
| 20260830231539 | 74 | 123 | 0.0 | 2.0 | 0.01 | 0.11 | 0.11 | 95 | 1015.0 |
| 20260830230038 | 74 | 121 | 0.0 | 1.0 | 0.01 | 0.11 | 0.11 | 94 | 1014.7 |
| 20260830224541 | 75 | 121 | 0.0 | 1.0 | 0.00 | 0.10 | 0.10 | 94 | 1015.2 |
| 20260830223038 | 75 | 121 | 0.0 | 0.0 | 0.01 | 0.10 | 0.10 | 93 | 1015.5 |
| 20260830221539 | 75 | 121 | 0.0 | 0.0 | 0.01 | 0.10 | 0.10 | 92 | 1015.7 |
| 20260830220034 | 76 | 121 | 0.0 | 0.0 | 0.01 | 0.10 | 0.10 | 89 | 1015.6 |
| 20260830214532 | 77 | 121 | 0.0 | 0.0 | 0.01 | 0.10 | 0.10 | 86 | 1015.3 |
| 20260830213034 | 78 | 121 | 0.0 | 1.0 | 0.00 | 0.09 | 0.09 | 85 | 1015.1 |
| 20260830211533 | 78 | 121 | 0.0 | 3.0 | 0.00 | 0.09 | 0.09 | 83 | 1015.4 |
| 20260830210032 | 78 | 163 | 0.0 | 3.0 | 0.00 | 0.09 | 0.09 | 82 | 1015.5 |
| 20260830204532 | 78 | 144 | 0.0 | 3.0 | 0.00 | 0.09 | 0.09 | 82 | 1015.5 |
| 20260830203037 | 77 | 203 | 1.0 | 3.0 | 0.00 | 0.09 | 0.09 | 84 | 1015.3 |
| 20260830201541 | 77 | 168 | 0.0 | 0.0 | 0.00 | 0.09 | 0.09 | 89 | 1015.6 |
| 20260830200028 | 77 | 168 | 0.0 | 0.0 | 0.00 | 0.09 | 0.09 | 84 | 1015.9 |
| 20260830194528 | 78 | 168 | 0.0 | 0.0 | 0.00 | 0.09 | 0.09 | 81 | 1016.2 |
| 20260830193028 | 79 | 167 | 0.0 | 4.0 | 0.00 | 0.09 | 0.09 | 78 | 1015.7 |
| 20260830191527 | 79 | 180 | 0.0 | 3.0 | 0.00 | 0.09 | 0.09 | 77 | 1015.6 |
| 20260830190033 | 80 | 192 | 0.0 | 3.0 | 0.00 | 0.09 | 0.09 | 77 | 1015.3 |
| 20260830184525 | 81 | 190 | 1.0 | 2.0 | 0.00 | 0.09 | 0.09 | 75 | 1015.2 |
| 20260830183024 | 82 | 198 | 1.0 | 4.0 | 0.00 | 0.09 | 0.09 | 73 | 1015.1 |
| 20260830181524 | 83 | 138 | 3.0 | 9.0 | 0.00 | 0.09 | 0.09 | 73 | 1014.4 |
| 20260830180020 | 83 | 149 | 1.0 | 7.0 | 0.00 | 0.09 | 0.09 | 75 | 1014.2 |
| 20260830174516 | 81 | 157 | 1.0 | 7.0 | 0.00 | 0.09 | 0.09 | 76 | 1014.4 |
| 20260830173012 | 79 | 77 | 2.0 | 11.0 | 0.00 | 0.09 | 0.09 | 77 | 1014.7 |
| 20260830171511 | 78 | 167 | 1.0 | 10.0 | 0.00 | 0.09 | 0.09 | 80 | 1014.8 |
| 20260830170008 | 77 | 277 | 2.0 | 8.0 | 0.00 | 0.09 | 0.09 | 81 | 1014.8 |
| 20260830164503 | 75 | 234 | 1.0 | 4.0 | 0.00 | 0.09 | 0.09 | 86 | 1015.0 |
| 20260830163109 | 74 | 160 | 1.0 | 10.0 | 0.00 | 0.09 | 0.09 | 85 | 1014.7 |
| 20260830161557 | 73 | 150 | 0.0 | 8.0 | 0.00 | 0.09 | 0.09 | 86 | 1015.1 |
| 20260830160051 | 73 | 164 | 0.0 | 7.0 | 0.00 | 0.09 | 0.09 | 87 | 1015.1 |
| 20260830154552 | 73 | 180 | 0.0 | 6.0 | 0.00 | 0.09 | 0.09 | 87 | 1015.0 |
| 20260830153044 | 73 | 136 | 0.0 | 5.0 | 0.00 | 0.09 | 0.09 | 89 | 1015.1 |
| 20260830151543 | 72 | 114 | 0.0 | 3.0 | 0.00 | 0.09 | 0.09 | 92 | 1014.8 |
| 20260830150041 | 70 | 150 | 3.0 | 9.0 | 0.00 | 0.09 | 0.09 | 94 | 1014.5 |
| 20260830144541 | 69 | 360 | 1.0 | 9.0 | 0.01 | 0.09 | 0.09 | 95 | 1014.2 |
| 20260830143035 | 69 | 210 | 2.0 | 7.0 | 0.01 | 0.09 | 0.09 | 96 | 1015.1 |
| 20260830141533 | 68 | 159 | 0.0 | 7.0 | 0.02 | 0.09 | 0.09 | 96 | 1015.4 |
| 20260830140030 | 68 | 167 | 0.0 | 9.0 | 0.03 | 0.09 | 0.09 | 96 | 1015.2 |
| 20260830134529 | 68 | 164 | 1.0 | 7.0 | 0.03 | 0.08 | 0.08 | 97 | 1015.4 |
| 20260830133028 | 67 | 128 | 3.0 | 8.0 | 0.04 | 0.08 | 0.08 | 97 | 1015.4 |
| 20260830131524 | 67 | 161 | 1.0 | 6.0 | 0.05 | 0.07 | 0.07 | 97 | 1016.1 |
| 20260830130024 | 67 | 153 | 0.0 | 5.0 | 0.05 | 0.06 | 0.06 | 96 | 1016.2 |
| 20260830124523 | 67 | 148 | 1.0 | 3.0 | 0.05 | 0.05 | 0.05 | 96 | 1016.2 |
| 20260830123021 | 67 | 175 | 0.0 | 2.0 | 0.04 | 0.04 | 0.04 | 95 | 1016.2 |
| 20260830121520 | 67 | 144 | 0.0 | 0.0 | 0.02 | 0.02 | 0.02 | 94 | 1016.2 |
| 20260830120018 | 67 | 146 | 0.0 | 0.0 | 0.01 | 0.01 | 0.01 | 93 | 1016.6 |
| 20260830114518 | 68 | 146 | 0.0 | 0.0 | 0.00 | 0.00 | 0.00 | 91 | 1016.2 |
| 20260830113011 | 68 | 146 | 0.0 | 0.0 | 0.00 | 0.00 | 0.00 | 89 | 1015.8 |
| 20260830111510 | 68 | 146 | 0.0 | 0.0 | 0.00 | 0.00 | 0.00 | 88 | 1015.6 |
| 20260830110009 | 68 | 150 | 0.0 | 2.0 | 0.00 | 0.00 | 0.00 | 88 | 1015.0 |
| 20260830104507 | 69 | 167 | 0.0 | 1.0 | 0.00 | 0.00 | 0.00 | 87 | 1015.0 |
| 20260830103007 | 69 | 173 | 0.0 | 4.0 | 0.00 | 0.00 | 0.00 | 86 | 1014.8 |